OpenBCM V1.07b12 (Linux)

Packet Radio Mailbox

SR1BSZ

[Szczecin_PL JO73GK]

 Login: GUEST





  
I0OJJ  > KEPS     07.09.25 23:08z 316 Lines 15000 Bytes #7 (0) @ AMSAT
BID : ORB25250.1
Read: GUEST
Subj: 2Line Orbital Elements 25250.AMSAT
Path: SR1BSZ<EA2RCF<I0OJJ
Sent: 250907/0025z @:I0OJJ.ITA.EU [Rome] obcm1.08-10-g596e
From: I0OJJ @ I0OJJ.ITA.EU (Gustavo)
To:   KEPS @ AMSAT
X-Info: This message was generated automatically


QST de W1STR

AMSAT Orbital Elements for Amateur Satellites in TLE Format
From Orbital Analysis Office
New England Sci-Tech STEM Education Center
Natick MA September 07, 2025
To all radio amateurs


These element sets describe the orbits of various satellites 
in use by the amateur radio community. For details see:
www.amsat.org/keplerian-elements-formats/

A daily update of element sets is available at:
www.amsat.org/tle/daily-bulletin.txt
or without bulletin text:
www.amsat.org/tle/dailytle.txt


AO-07
1 07530U 74089B   25249.29060856 -.00000015  00000-0  19707-3 0  9995
2 07530 101.9976 254.5093 0012011 314.4157  57.0291 12.53691402324947
UO-11
1 14781U 84021B   25249.14192082  .00002160  00000-0  23161-3 0  9990
2 14781  97.7634 213.8113 0009035  51.6785 308.5244 14.89639313214827
AO-27
1 22825U 93061C   25249.16894071  .00000205  00000-0  95178-4 0  9997
2 22825  98.7290 311.1338 0007896 206.6852 153.3925 14.30825889666380
FO-29
1 24278U 96046B   25249.25391512  .00000018  00000-0  50696-4 0  9997
2 24278  98.5605 131.4266 0350807 112.7627 251.0978 13.53253124434765
NOAA-15
1 25338U 98030A   25249.29927179  .00000265  00000-0  12635-3 0  9992
2 25338  98.5327 272.2833 0011457  98.8083 261.4395 14.27013051420806
GO-32
1 25397U 98043D   25249.20452606  .00000167  00000-0  92357-4 0  9991
2 25397  98.9798 230.2107 0000980   7.3698 352.7494 14.24336434410905
ISS
1 25544U 98067A   25249.16482935  .00011253  00000-0  20385-3 0  9993
2 25544  51.6328 265.7109 0004205 306.5919  53.4683 15.50137885527726
NO-44
1 26931U 01043C   25249.29216657  .00000275  00000-0  13395-3 0  9997
2 26931  67.0489 258.4653 0007004 275.5609  84.4693 14.31773710249806
SO-50
1 27607U 02058C   25249.23734309  .00002070  00000-0  27013-3 0  9995
2 27607  64.5531 286.8204 0065531 315.3092  44.2742 14.81856610222369
CO-55
1 27844U 03031E   25249.00065011  .00000544  00000-0  25585-3 0  9998
2 27844  98.6789 256.1447 0008511 294.2890  65.7400 14.24060560151223
CO-57
1 27848U 03031J   25249.27179255  .00000475  00000-0  22852-3 0  9994
2 27848  98.6816 256.3504 0008625 312.9033  47.1421 14.23386589150987
RS-22
1 27939U 03042A   25249.29110382  .00002031  00000-0  32747-3 0  9999
2 27939  98.3356  60.9381 0012600  89.0829  12.0999 14.72562804173750
CO-58
1 28895U 05043F   25248.93787532  .00002703  00000-0  44513-3 0  9991
2 28895  98.2614  34.4658 0014951  31.2656 328.9436 14.71307847 59930
CO-65
1 32785U 08021C   25249.17673879  .00008089  00000-0  56924-3 0  9990
2 32785  97.7940 221.0849 0007190 272.5941  87.4462 15.05309954942407
CO-66
1 32791U 08021J   25248.93857904  .00018570  00000-0  84345-3 0  9997
2 32791  97.7346 231.1075 0003103 175.5547 184.5716 15.20827119943914
RS-30
1 32953U 08025A   25249.25075938  .00000013  00000-0  21239-4 0  9993
2 32953  82.5071 172.0459 0018219 209.8033 150.2010 12.43167938784418
NOAA-19
1 33591U 09005A   25249.18832176  .00000209  00000-0  13525-3 0  9993
2 33591  98.9901 314.3609 0014783 112.4097 247.8642 14.13404243854367
SRMSAT
1 37841U 11058D   25248.70297111  .00000529  00000-0  14372-3 0  9993
2 37841  19.9733 341.2701 0011714 315.1196 202.1689 14.11461220717572
ZACUBE-1
1 39417U 13066B   25249.15134077  .00007261  00000-0  61625-3 0  9999
2 39417  97.7862 205.7716 0045305 115.3476 245.2448 14.97410709638162
Delfi-N3xt
1 39428U 13066N   25249.27549046  .00011491  00000-0  11339-2 0  9996
2 39428  97.8294 165.9678 0085008  68.7231 292.3037 14.89425355632279
GOMX-1
1 39430U 13066Q   25249.31238190  .00002837  00000-0  44379-3 0  9994
2 39430  97.6736 102.5097 0130258 268.4199  90.2083 14.67965516628245
LO-74
1 39440U 13066AA  25248.83923635  .00005309  00000-0  53023-3 0  9999
2 39440  97.8533 192.8432 0059626 248.1767 111.3101 14.90601165634586
AO-73
1 39444U 13066AE  25248.83522181  .00010867  00000-0  78554-3 0  9995
2 39444  97.7905 211.1822 0043280  88.9208 271.6975 15.03466635636845
DTUSAT-2
1 40030U 14033W   25248.89554815  .00010987  00000-0  69029-3 0  9998
2 40030  98.0627 225.0913 0010793 117.3653 242.8674 15.09402218609717
EO-80
1 40032U 14033Y   25249.17642527  .00010665  00000-0  66854-3 0  9996
2 40032  98.0511 224.9179 0010314  68.5681 291.6645 15.09497877609737
LILACSAT-2
1 40908U 15049K   25249.31337282  .00017493  00000-0  42639-3 0  9992
2 40908  97.5033 271.9076 0008636 187.9292 172.1819 15.40929386551886
IO-86
1 40931U 15052B   25151.18580175  .00001241  00000-0  78118-4 0  9996
2 40931   6.0006  24.0987 0012733 338.8432  21.1169 14.78805930523159
Horyu-4
1 41340U 16012D   25249.28436012  .00039754  00000-0  92940-3 0  9995
2 41340  30.9950 253.8209 0006678 256.9055 103.0847 15.40899692526467
Lapan A3
1 41603U 16040E   25249.30891927  .00004993  00000-0  17184-3 0  9995
2 41603  97.1409 250.4827 0009358 320.7937  39.2626 15.30457444511350
CAS-2T
1 41847U 16066G   25249.19225390  .00001391  00000-0  20787-3 0  9997
2 41847  98.4140 322.8685 0344158 270.3827  85.7942 14.43694900463806
CAS-4B
1 42759U 17034B   25249.16043200  .00213089  00000-0  10728-2 0  9993
2 42759  43.0015 148.7717 0022678 203.9596 156.0222 15.79907158456528
CAS-4A
1 42761U 17034D   25249.15335291  .00261525  00000-0  11303-2 0  9997
2 42761  43.0050 144.5443 0023601 209.6391 150.3144 15.83012475456550
TechnoSat
1 42829U 17042E   25249.18420756  .00005169  00000-0  39449-3 0  9997
2 42829  97.4007  53.7156 0017063 350.2927   9.7966 15.02292673444024
AO-91
1 43017U 17073E   25249.13021013  .00011222  00000-0  56028-3 0  9998
2 43017  97.5100 117.6815 0167535 224.2778 134.4947 15.06139870422535
S-Net D
1 43186U 18014G   25249.23409468  .00007252  00000-0  41808-3 0  9994
2 43186  97.5518 151.2333 0007002 282.9331  77.1118 15.12663116415775
S-Net B
1 43187U 18014H   25249.24066254  .00007267  00000-0  41910-3 0  9998
2 43187  97.5525 151.2158 0007619 276.9175  83.1189 15.12643173415778
S-Net A
1 43188U 18014J   25249.23416433  .00007239  00000-0  41721-3 0  9995
2 43188  97.5531 151.3716 0007543 277.4758  82.5615 15.12668673415775
S-Net C
1 43189U 18014K   25249.24327651  .00007250  00000-0  41808-3 0  9999
2 43189  97.5551 151.4098 0008971 268.4828  91.5375 15.12639806414325
Ten-Koh
1 43677U 18084G   25249.27289538  .00003842  00000-0  30614-3 0  9998
2 43677  98.0817  65.0444 0006052 336.0054  24.0886 15.00974979373540
PO-101
1 43678U 18084H   25249.26506189  .00003490  00000-0  29524-3 0  9999
2 43678  98.1102  68.8235 0008750   5.8590 354.2732 14.98728036373669
QO-100
1 43700U 18090A   25249.24039351  .00000000  00000-0  00000-0 0  9991
2 43700   0.0259 160.7697 0001273  28.1180 269.0564  1.00268370 24826
MinXSS-2
1 43758U 18099A   25249.19290437  .00028085  00000-0  10120-2 0  9990
2 43758  97.4946 315.6340 0011188 197.0229 163.0637 15.28461337370498
AO-95
1 43770U 18099N   25249.11539867  .00013586  00000-0  65553-3 0  9990
2 43770  97.4838 306.2686 0008970 261.3508  98.6710 15.18770384369982
SNUSat 2
1 43782U 18099AA  25249.10189695  .00011109  00000-0  58314-3 0  9998
2 43782  97.4523 302.2688 0011477 200.3470 159.7307 15.15839748369901
SnugLite
1 43784U 18099AC  25249.12606050  .00012968  00000-0  62009-3 0  9991
2 43784  97.4335 302.0487 0003413 179.8881 180.2355 15.19122279370076
ITASat 1
1 43786U 18099AE  25249.07761979  .00009073  00000-0  50223-3 0  9997
2 43786  97.4493 301.4856 0012428 258.0688 101.9151 15.13998148369844
EAGLET 1
1 43790U 18099AJ  25249.11993573  .00005287  00000-0  33098-3 0  9998
2 43790  97.4688 301.1735 0010567 241.2498 118.7671 15.09759738369425
ESEO
1 43792U 18099AL  25249.16134112  .00002134  00000-0  16312-3 0  9999
2 43792  97.4381 293.2729 0011207 216.6784 143.3676 15.02912245369120
JO-97
1 43803U 18099AX  25248.89761925  .00017273  00000-0  74088-3 0  9993
2 43803  97.4592 307.2551 0007386 184.6538 175.4631 15.22775380370207
Suomi 100
1 43804U 18099AY  25249.12816263  .00013367  00000-0  62204-3 0  9994
2 43804  97.4652 306.5093 0011906 192.4984 167.5957 15.19999633370144
ISAT
1 43879U 18111D   25249.03180255  .00029935  00000-0  92680-3 0  9995
2 43879  97.5880 165.5433 0005741 227.9624 132.1130 15.33403245367238
UWE-4
1 43880U 18111E   25249.26534440  .00025667  00000-0  92389-3 0  9995
2 43880  97.5825 163.5925 0008790 252.8989 107.1288 15.28540083367165
Sparrow
1 43881U 18111F   25249.26290554  .00038480  00000-0  11344-2 0  9999
2 43881  97.6045 169.0251 0003261 285.4627  74.6256 15.34911370367377
Prox-1
1 44339U 19036A   25249.16794739  .00016345  00000-0  19910-2 0  9991
2 44339  23.9955 199.1742 0006547   2.2130 357.8396 14.81728991331166
Taurus 1
1 44530U 19059C   25249.30114395  .00011196  00000-0  20076-2 0  9993
2 44530  98.6156  33.0096 0009834 120.1034 240.1145 14.66903599316941
Duchifat 3
1 44854U 19089C   25249.11388217  .00102480  00000-0  14350-2 0  9995
2 44854  36.9387 149.0800 0008524 293.5708  66.4156 15.55513202316768
TO-108
1 44881U 19093C   25249.26072723  .00001525  00000-0  18147-3 0  9995
2 44881  97.7865 323.0384 0012530 303.7759  56.2262 14.85771666309249
FloripaSat 1
1 44885U 19093G   25249.26930632  .00009681  00000-0  79456-3 0  9992
2 44885  97.8173 337.0897 0007630 269.4798  90.5551 14.99403810310035
RS-44
1 44909U 19096E   25249.21145643  .00000020  00000-0  27796-4 0  9996
2 44909  82.5255 168.4056 0218531  88.3087 274.3030 12.79743160266024
UPMSat 2
1 46276U 20061E   25249.21920132  .00239968  00000-0  93176-3 0  9992
2 46276  97.2336 327.4546 0002945 226.0823 134.0206 15.86547551279428
SALSAT
1 46495U 20068K   25249.23060880  .00011454  00000-0  47556-3 0  9998
2 46495  97.8684 231.4671 0010221 204.2506 155.8250 15.23969566272022
